When you browse on this site, cookies collect data to enhance your experience and personalize the content and advertising you see.
Visit our Privacy Policy to learn more. By continuing to use the site, you agree to this use of cookies and data.
  • In Sweden
  • List of Countries
  • For 7 days
  • Water Temperature
  • Weather Map
  • Weather Widgets
  • user-avatar
    Login

    Hourly Weather Toploe

    Today, 16 December, Monday

    Time Temperature Precipitation Wind Pressure Humidity
    00:00 -6°C° 0 mm 6 mps 744 mmHg 94%
    01:00 -6°C° 0 mm 6 mps 744 mmHg 94%
    02:00 -6°C° 0 mm 6 mps 743 mmHg 95%
    03:00 -6°C° 0 mm 6 mps 743 mmHg 95%
    04:00 -5°C° 0.3 mm 6 mps 742 mmHg 95%
    05:00 -5°C° 0.3 mm 6 mps 742 mmHg 96%
    06:00 -4°C° 0.3 mm 6 mps 742 mmHg 96%
    07:00 -4°C° 0.9 mm 6 mps 742 mmHg 97%
    08:00 -2°C° 0.9 mm 5 mps 742 mmHg 97%
    09:00 -2°C° 0.9 mm 5 mps 742 mmHg 98%
    10:00 -2°C° 0.3 mm 4 mps 742 mmHg 98%
    11:00 -1°C° 0.3 mm 4 mps 742 mmHg 99%
    12:00 -1°C° 0.3 mm 4 mps 742 mmHg 99%
    13:00 -1°C° 0 mm 4 mps 742 mmHg 99%
    14:00 -1°C° 0 mm 4 mps 742 mmHg 98%
    15:00 -2°C° 0 mm 4 mps 742 mmHg 97%
    16:00 -2°C° 0 mm 4 mps 742 mmHg 97%
    17:00 -2°C° 0 mm 3 mps 743 mmHg 96%
    18:00 -2°C° 0 mm 3 mps 743 mmHg 96%
    19:00 -2°C° 0.1 mm 3 mps 742 mmHg 96%
    20:00 -2°C° 0.1 mm 3 mps 742 mmHg 97%
    21:00 -2°C° 0.1 mm 3 mps 742 mmHg 97%
    22:00 -2°C° 0.3 mm 3 mps 742 mmHg 98%
    23:00 -1°C° 0.3 mm 3 mps 741 mmHg 98%

    Tomorrow, 17 December, Tuesday

    Time Temperature Precipitation Wind Pressure Humidity
    00:00 -1°C° 0.3 mm 3 mps 741 mmHg 98%
    01:00 -1°C° 0.1 mm 4 mps 741 mmHg 98%
    02:00 -1°C° 0.1 mm 4 mps 741 mmHg 98%
    03:00 -1°C° 0.1 mm 5 mps 741 mmHg 98%
    04:00 -1°C° 0 mm 5 mps 741 mmHg 95%
    05:00 -1°C° 0 mm 5 mps 741 mmHg 92%
    06:00 -2°C° 0 mm 5 mps 741 mmHg 89%
    07:00 -2°C° 0 mm 5 mps 742 mmHg 90%
    08:00 -2°C° 0 mm 5 mps 742 mmHg 91%
    09:00 -2°C° 0 mm 5 mps 742 mmHg 93%
    10:00 -2°C° 0 mm 5 mps 743 mmHg 92%
    11:00 -2°C° 0 mm 5 mps 743 mmHg 92%
    12:00 -2°C° 0 mm 5 mps 743 mmHg 91%
    13:00 -2°C° 0 mm 5 mps 743 mmHg 92%
    14:00 -2°C° 0 mm 5 mps 743 mmHg 92%
    15:00 -2°C° 0 mm 4 mps 744 mmHg 92%
    16:00 -3°C° 0 mm 4 mps 744 mmHg 93%
    17:00 -3°C° 0 mm 4 mps 744 mmHg 94%
    18:00 -2°C° 0 mm 3 mps 744 mmHg 95%
    19:00 -2°C° 0 mm 3 mps 744 mmHg 95%
    20:00 -2°C° 0 mm 3 mps 743 mmHg 95%
    21:00 -2°C° 0 mm 3 mps 743 mmHg 95%
    22:00 -3°C° 0.1 mm 4 mps 743 mmHg 96%
    23:00 -2°C° 0.1 mm 5 mps 742 mmHg 96%

    Day after tomorrow, 18 December, Wednesday

    Time Temperature Precipitation Wind Pressure Humidity
    00:00 -2°C° 0.1 mm 5 mps 742 mmHg 96%
    01:00 -3°C° 0.2 mm 6 mps 741 mmHg 96%
    02:00 -2°C° 0.2 mm 6 mps 741 mmHg 97%
    03:00 -2°C° 0.2 mm 6 mps 740 mmHg 97%
    04:00 -2°C° 0.4 mm 6 mps 740 mmHg 98%
    05:00 -1°C° 0.4 mm 5 mps 740 mmHg 98%
    06:00 -1°C° 0.4 mm 5 mps 740 mmHg 98%
    07:00 -1°C° 0.2 mm 4 mps 740 mmHg 98%
    08:00 -1°C° 0.2 mm 4 mps 740 mmHg 99%
    09:00 0°C° 0.2 mm 3 mps 740 mmHg 99%
    10:00 0°C° 0 mm 3 mps 741 mmHg 99%
    11:00 0°C° 0 mm 3 mps 741 mmHg 99%
    12:00 +1°C° 0 mm 2 mps 741 mmHg 99%
    13:00 +1°C° 0 mm 2 mps 741 mmHg 99%
    14:00 +1°C° 0 mm 2 mps 742 mmHg 98%
    15:00 -1°C° 0 mm 2 mps 742 mmHg 97%
    16:00 -1°C° 0 mm 2 mps 742 mmHg 96%
    17:00 -1°C° 0 mm 2 mps 743 mmHg 94%
    18:00 +1°C° 0 mm 1 mps 743 mmHg 93%
    19:00 0°C° 0 mm 1 mps 743 mmHg 93%
    20:00 0°C° 0 mm 1 mps 743 mmHg 93%
    21:00 0°C° 0 mm 1 mps 743 mmHg 93%
    22:00 0°C° 0 mm 1 mps 743 mmHg 93%
    23:00 -2°C° 0 mm 2 mps 743 mmHg 94%

    19 December, Thursday

    Time Temperature Precipitation Wind Pressure Humidity
    00:00 -2°C° 0 mm 2 mps 743 mmHg 94%
    01:00 -1°C° 0 mm 2 mps 743 mmHg 95%
    02:00 -1°C° 0 mm 3 mps 742 mmHg 97%
    03:00 0°C° 0 mm 3 mps 742 mmHg 98%
    04:00 -1°C° 0 mm 4 mps 742 mmHg 98%
    05:00 -1°C° 0 mm 4 mps 741 mmHg 98%
    06:00 -1°C° 0 mm 4 mps 741 mmHg 98%
    07:00 -1°C° 0 mm 4 mps 740 mmHg 98%
    08:00 -1°C° 0 mm 5 mps 740 mmHg 98%
    09:00 0°C° 0 mm 5 mps 739 mmHg 98%
    10:00 0°C° 0 mm 5 mps 739 mmHg 98%
    11:00 0°C° 0 mm 5 mps 738 mmHg 99%
    12:00 -1°C° 0 mm 6 mps 738 mmHg 99%
    13:00 -1°C° 0 mm 6 mps 737 mmHg 98%
    14:00 -1°C° 0 mm 6 mps 737 mmHg 97%
    15:00 -1°C° 0 mm 6 mps 737 mmHg 97%
    16:00 -1°C° 0 mm 7 mps 736 mmHg 96%
    17:00 -1°C° 0 mm 7 mps 736 mmHg 95%
    18:00 -2°C° 0 mm 7 mps 736 mmHg 95%
    19:00 -2°C° 0 mm 7 mps 736 mmHg 93%
    20:00 -2°C° 0 mm 7 mps 736 mmHg 92%
    21:00 -2°C° 0 mm 6 mps 736 mmHg 91%
    22:00 -3°C° 0 mm 7 mps 736 mmHg 90%
    23:00 -3°C° 0 mm 7 mps 736 mmHg 89%

    20 December, Friday

    Time Temperature Precipitation Wind Pressure Humidity
    00:00 -3°C° 0 mm 7 mps 736 mmHg 89%
    01:00 -3°C° 0 mm 7 mps 736 mmHg 85%
    02:00 -4°C° 0 mm 8 mps 736 mmHg 82%
    03:00 -2°C° 0 mm 8 mps 737 mmHg 79%
    04:00 -4°C° 0 mm 8 mps 737 mmHg 81%
    05:00 -3°C° 0 mm 7 mps 737 mmHg 83%
    06:00 -4°C° 0 mm 7 mps 737 mmHg 85%
    07:00 -4°C° 0 mm 7 mps 738 mmHg 85%
    08:00 -4°C° 0 mm 7 mps 738 mmHg 85%
    09:00 -4°C° 0 mm 7 mps 738 mmHg 85%
    10:00 -4°C° 0 mm 7 mps 739 mmHg 84%
    11:00 -4°C° 0 mm 7 mps 739 mmHg 84%
    12:00 -4°C° 0 mm 7 mps 740 mmHg 84%
    13:00 -4°C° 0 mm 6 mps 740 mmHg 83%
    14:00 -4°C° 0 mm 6 mps 740 mmHg 83%
    15:00 -4°C° 0 mm 6 mps 740 mmHg 83%
    16:00 -4°C° 0 mm 6 mps 740 mmHg 83%
    17:00 -4°C° 0 mm 5 mps 741 mmHg 83%
    18:00 -5°C° 0 mm 5 mps 741 mmHg 83%
    19:00 -5°C° 0 mm 5 mps 741 mmHg 84%
    20:00 -4°C° 0 mm 4 mps 741 mmHg 86%
    21:00 -5°C° 0 mm 4 mps 741 mmHg 88%
    22:00 -5°C° 0 mm 4 mps 741 mmHg 89%
    23:00 -5°C° 0 mm 4 mps 742 mmHg 90%

    21 December, Saturday

    Time Temperature Precipitation Wind Pressure Humidity
    00:00 -5°C° 0 mm 4 mps 742 mmHg 91%
    01:00 -5°C° 0 mm 4 mps 742 mmHg 91%
    02:00 -5°C° 0 mm 4 mps 742 mmHg 91%
    03:00 -6°C° 0 mm 3 mps 742 mmHg 92%
    04:00 -5°C° 0 mm 3 mps 743 mmHg 91%
    05:00 -5°C° 0 mm 3 mps 743 mmHg 91%
    06:00 -4°C° 0 mm 2 mps 743 mmHg 91%
    07:00 -5°C° 0 mm 2 mps 743 mmHg 91%
    08:00 -5°C° 0 mm 2 mps 744 mmHg 91%
    09:00 -5°C° 0 mm 2 mps 744 mmHg 92%
    10:00 -3°C° 0 mm 1 mps 744 mmHg 90%
    11:00 -2°C° 0 mm 1 mps 744 mmHg 89%
    12:00 -2°C° 0 mm 1 mps 745 mmHg 87%
    13:00 -2°C° 0 mm 1 mps 745 mmHg 89%
    14:00 -2°C° 0 mm 1 mps 745 mmHg 90%
    15:00 -3°C° 0 mm 0 mps 745 mmHg 91%
    16:00 -4°C° 0 mm 0 mps 745 mmHg 91%
    17:00 -4°C° 0 mm 0 mps 745 mmHg 91%
    18:00 -4°C° 0 mm 0 mps 746 mmHg 91%
    19:00 -4°C° 0 mm 0 mps 746 mmHg 91%
    20:00 -3°C° 0 mm 1 mps 746 mmHg 91%
    21:00 -3°C° 0 mm 1 mps 746 mmHg 91%
    22:00 -4°C° 0 mm 1 mps 747 mmHg 91%
    23:00 -4°C° 0 mm 1 mps 747 mmHg 91%
    Show more